Theta_e
289 284 280 284 285 285 284 283 282 285 289 286 285 285 287 291 291 291 291 292 293 294 297 299 302 305 310 319 323 327 330 330 330 329 327 327 326 328 329 330 329 329 327 326
285 280 287 289 288 285 284 282 282 285 288 286 285 284 287 289 290 291 291 291 293 294 296 297 301 307 311 318 322 326 330 329 329 329 328 328 327 327 329 328 327 327 326 325
282 285 289 287 286 284 284 282 282 281 285 287 284 282 284 288 290 291 292 292 293 293 294 296 298 308 314 317 320 325 328 328 329 330 329 327 327 326 325 325 325 326 326 325
285 289 287 286 284 284 281 287 285 283 281 277 284 274 282 286 287 289 290 291 292 293 294 296 297 306 311 313 311 314 316 325 330 330 327 326 323 322 324 325 326 325 325 325
283 285 285 283 284 287 283 288 286 285 282 281 280 276 281 285 283 286 289 291 292 293 294 295 298 308 307 306 308 309 314 314 318 329 328 326 325 326 325 325 324 325 326 327
286 291 288 287 288 288 289 285 283 283 280 273 277 277 278 281 283 286 289 291 292 293 293 295 301 304 302 303 305 307 310 308 311 315 320 325 324 324 322 322 321 324 324 325
284 287 288 289 285 288 286 281 275 273 272 271 279 276 279 285 287 288 289 291 292 293 293 299 301 300 299 300 302 303 305 304 306 307 307 310 311 315 318 323 322 322 323 323
276 276 285 288 285 282 283 281 275 269 271 274 278 273 279 286 287 289 291 293 293 294 298 297 297 297 296 297 299 300 300 301 302 303 301 304 304 307 309 313 313 322 323 323
275 278 287 288 289 286 283 279 284 278 278 274 277 279 284 285 285 287 289 291 293 292 293 292 293 293 294 295 296 297 297 297 298 299 299 300 299 301 301 302 304 306 308 319
280 275 285 288 288 288 282 285 277 278 270 270 275 275 273 278 281 286 287 287 287 288 289 290 291 292 293 293 293 294 294 294 295 295 296 296 296 296 297 297 297 298 300 301
283 279 281 286 282 280 280 279 281 281 279 273 271 272 280 280 281 282 284 285 286 286 287 288 290 291 291 292 292 292 292 292 292 293 293 293 293 294 294 294 294 294 295 296
284 280 277 281 285 285 283 281 282 277 275 277 275 272 282 283 282 283 283 284 284 285 285 286 288 289 290 289 290 290 290 290 291 291 291 291 291 292 291 291 291 292 292 293
283 282 276 278 281 283 280 281 281 280 280 272 271 271 282 282 281 282 282 282 284 284 284 284 285 285 286 287 288 288 289 289 289 289 289 288 289 289 289 289 290 290 290 290
286 283 278 274 276 280 276 279 280 278 274 272 272 273 276 279 279 281 281 282 282 282 283 283 283 284 285 285 285 286 287 288 288 288 287 286 286 287 287 288 288 288 288 289
281 278 279 281 281 281 278 277 278 275 277 273 274 273 275 278 279 281 282 282 281 280 281 281 281 282 283 283 284 285 285 286 287 286 285 285 286 286 286 286 287 287 287 287
281 279 276 278 281 281 277 277 278 277 277 277 277 275 280 280 280 281 281 281 280 281 281 281 282 282 282 283 283 284 284 284 285 285 284 284 284 284 284 285 285 285 285 285
278 273 275 279 279 279 275 275 276 278 278 278 275 278 280 278 278 278 280 281 280 281 282 282 282 282 283 283 284 285 285 286 285 284 284 284 283 283 283 284 283 283 283 284
276 273 276 278 280 272 279 283 279 279 278 280 281 283 282 281 281 280 281 281 281 281 282 282 283 284 284 285 285 285 286 286 285 284 284 284 284 284 283 283 283 283 283 283
280 275 277 279 277 279 279 277 275 274 277 280 281 283 284 286 286 282 282 282 281 282 283 283 284 284 285 285 286 285 284 284 283 283 283 284 284 283 283 282 282 283 283 282
276 276 277 280 275 272 276 279 280 278 276 281 282 283 283 285 279 279 282 282 282 283 283 283 284 284 284 284 285 284 283 282 281 282 282 283 283 283 282 282 281 282 282 281
274 276 274 278 277 276 278 279 280 276 276 282 283 282 281 279 280 281 282 282 283 282 283 284 283 282 282 284 284 282 281 280 281 282 282 282 282 282 282 282 282 281 281 281
272 273 275 275 276 273 280 281 278 279 281 283 283 283 281 281 281 281 281 280 281 280 280 282 281 280 280 282 283 281 279 280 281 281 280 280 281 281 282 281 281 281 281 280
276 275 276 276 277 278 280 279 281 282 282 283 282 282 282 281 279 280 279 279 278 278 278 279 280 279 278 279 280 279 278 279 279 279 277 279 279 280 281 282 281 282 281 282
275 275 276 276 279 279 280 281 281 282 283 282 282 282 282 280 280 279 279 279 278 277 276 277 277 276 275 276 276 275 276 277 277 278 278 279 279 280 280 282 282 283 282 281
277 275 276 277 279 278 280 280 281 280 280 280 279 280 281 281 279 280 279 279 278 277 276 275 274 274 273 274 274 272 273 275 278 278 278 280 280 280 280 280 281 280 281 281
276 278 277 280 281 282 282 282 280 279 279 278 280 279 278 280 280 279 277 276 277 275 275 275 274 273 272 273 271 270 270 272 274 278 280 280 280 281 280 280 281 281 281 282
Wind_Speed
6 6 14 18 19 23 22 23 26 20 18 16 22 26 25 22 21 21 19 18 18 17 16 15 16 15 14 13 12 12 12 11 9 9 9 10 11 9 6 7 8 10 9 10
6 16 22 21 20 19 21 24 27 24 22 19 21 27 25 24 24 24 22 20 19 18 16 19 16 16 14 12 12 12 13 11 10 6 7 6 9 9 8 5 8 11 12 11
16 21 24 19 20 20 21 23 24 25 23 14 15 27 27 31 25 25 26 22 21 19 16 18 16 15 11 10 9 12 12 14 12 11 8 5 6 6 7 6 7 11 12 11
14 16 14 16 20 19 23 23 25 25 18 14 16 15 17 16 18 24 25 21 21 20 17 17 15 12 4 9 3 6 3 9 14 13 10 12 10 8 7 10 10 9 12 13
13 20 20 18 24 18 16 15 16 14 13 15 19 15 24 16 21 22 22 23 21 19 18 18 15 8 3 4 4 4 2 3 4 13 14 11 11 8 7 7 9 10 11 14
22 19 19 17 19 11 12 6 4 6 5 11 14 14 16 9 18 18 20 20 20 18 18 18 10 5 2 3 3 1 3 5 4 3 3 12 12 10 9 11 10 9 9 11
21 6 6 8 10 9 8 3 4 6 8 8 3 8 15 9 17 21 20 16 17 16 18 10 10 7 4 2 1 3 2 7 3 4 6 5 4 4 2 6 11 13 10 9
11 9 1 3 5 9 12 5 5 6 4 6 3 7 3 9 18 16 20 9 16 11 10 10 8 5 4 3 4 5 4 9 6 4 7 5 6 1 3 2 2 4 7 8
8 6 10 10 5 5 7 5 8 7 7 10 8 3 4 16 16 18 16 14 9 9 8 9 7 6 5 5 7 7 6 9 9 8 7 8 8 7 4 6 4 1 4 5
5 13 4 8 4 5 4 8 6 5 5 7 3 5 11 19 17 6 11 12 11 9 9 8 7 8 6 7 7 9 9 11 11 9 8 9 9 7 6 7 8 8 6 7
7 5 13 13 8 15 16 6 6 5 4 5 4 5 12 15 14 10 9 11 11 10 8 8 9 9 7 9 9 8 10 11 11 10 10 10 11 10 8 8 10 9 9 9
3 5 12 14 9 15 15 16 3 4 5 5 2 5 16 13 15 11 14 10 10 10 10 9 11 10 10 9 11 10 11 13 11 10 11 15 13 11 12 12 12 10 11 11
9 6 8 6 10 16 23 25 19 7 3 17 5 6 14 15 16 17 13 11 11 12 14 14 13 13 11 9 11 12 11 12 11 12 14 14 13 12 12 13 12 11 10 11
5 4 5 9 10 14 23 26 24 17 7 8 11 12 18 17 17 14 13 13 15 16 15 13 14 12 10 11 11 13 12 11 10 14 15 13 13 12 12 11 11 11 11 11
5 4 6 5 3 14 18 22 23 21 16 10 10 13 16 16 15 14 14 14 17 18 16 15 12 11 12 14 13 12 12 12 12 16 14 12 11 11 11 12 11 11 12 12
9 4 4 4 5 3 18 22 20 19 16 12 13 12 11 10 14 16 15 15 17 15 15 14 14 15 14 13 13 12 13 14 13 14 13 11 12 12 11 11 11 11 11 12
7 7 6 4 8 6 10 17 16 13 19 12 12 7 10 16 17 18 16 17 17 16 15 15 15 13 13 12 11 13 13 11 13 13 12 12 11 10 10 9 10 10 11 10
7 6 3 4 6 7 3 7 5 6 17 16 11 11 8 8 10 15 15 16 16 16 14 14 12 12 12 11 12 12 11 12 12 12 11 9 10 10 9 9 11 11 9 10
4 4 3 3 4 1 2 8 7 7 11 17 13 12 10 9 6 20 18 16 14 14 12 12 11 13 13 12 10 10 12 11 12 12 11 10 9 10 9 9 11 7 8 8
4 4 3 2 4 6 5 11 7 4 11 15 13 13 13 8 14 8 15 14 14 13 12 11 11 11 12 11 10 11 12 11 12 10 9 8 8 8 9 9 8 7 7 7
6 3 3 5 3 2 6 11 4 2 4 10 11 11 12 10 7 5 8 11 10 10 12 10 12 11 11 9 8 11 10 11 8 6 7 8 7 8 7 7 7 6 6 5
3 4 3 3 1 3 10 2 4 3 3 4 7 8 9 8 6 7 8 9 10 11 12 11 10 11 11 11 9 10 11 8 7 6 7 7 7 6 5 6 5 4 3 4
1 2 2 2 3 1 4 4 2 2 2 3 4 4 6 6 6 7 7 8 9 10 9 8 7 8 9 9 9 9 8 7 6 5 5 5 4 4 4 3 3 2 3 3
4 3 2 3 4 2 1 1 1 2 3 4 4 3 4 5 4 4 4 4 5 6 6 5 7 8 8 8 7 7 6 6 5 4 4 3 3 4 3 2 2 2 2 1
2 6 4 3 3 4 3 3 2 3 3 2 2 3 4 4 3 3 3 4 4 4 3 4 5 5 6 6 7 7 8 7 5 4 3 3 3 3 3 2 2 2 1 2
8 6 5 2 6 1 3 7 3 3 1 2 1 2 2 3 4 3 4 4 4 4 4 5 6 5 5 5 5 6 7 7 6 4 3 3 3 2 2 3 2 4 4 4
Wind_Direction
220 244 237 242 231 254 273 279 280 278 281 267 256 260 266 270 268 258 251 249 252 249 256 266 264 251 257 253 252 252 216 195 190 171 178 183 183 183 199 188 184 194 192 188
242 245 257 268 272 267 253 260 261 275 267 260 263 266 274 274 270 260 257 248 249 249 245 250 246 253 233 249 256 245 208 201 190 182 187 188 184 187 189 194 187 196 197 187
256 268 304 272 271 266 252 252 264 265 277 259 262 266 257 260 255 253 252 248 249 249 235 248 241 243 229 247 252 268 209 198 195 186 174 163 161 170 171 187 204 205 199 195
266 267 271 279 269 265 266 254 263 263 262 261 190 276 260 266 250 238 245 240 237 239 236 241 240 233 250 242 297 287 290 238 194 185 188 189 189 174 192 205 204 197 201 201
265 298 296 285 280 288 279 286 275 270 267 277 249 264 277 267 259 252 241 233 233 229 223 230 225 215 202 266 254 268 263 49 344 196 193 198 203 193 179 194 198 198 204 206
262 269 280 278 294 287 284 263 241 239 243 246 248 228 282 282 262 260 245 236 231 221 215 225 192 169 185 262 246 237 169 79 50 26 200 221 218 215 191 193 198 201 202 203
313 267 274 312 289 260 221 200 248 221 208 251 108 245 245 318 331 305 292 251 248 206 217 161 169 185 142 201 148 101 136 95 79 102 77 72 90 66 349 236 209 205 204 197
345 320 44 21 292 304 256 214 242 284 262 291 84 242 291 349 321 285 270 247 284 169 139 160 135 132 104 89 75 89 74 81 60 43 79 82 41 66 310 270 348 213 202 200
315 277 324 303 301 316 358 242 297 280 253 267 242 243 227 341 309 274 231 232 137 108 125 107 102 90 99 92 78 82 84 77 62 53 55 63 60 48 2 4 358 341 342 243
301 290 271 316 306 212 253 296 257 191 263 261 199 75 337 334 342 48 122 108 97 94 93 90 91 85 76 78 77 84 80 77 66 60 61 62 60 51 45 43 31 30 25 30
272 252 311 326 359 341 327 275 243 286 239 300 1 44 341 349 5 13 81 88 95 93 81 85 86 72 75 72 73 65 73 72 66 59 56 65 52 50 46 55 43 35 32 33
353 306 306 315 18 3 351 352 333 281 45 341 55 50 347 12 23 21 51 59 80 83 82 68 73 64 64 62 64 62 59 64 60 61 59 52 51 41 47 44 42 37 44 38
342 343 325 6 7 14 19 19 19 22 44 17 24 354 355 18 37 27 39 43 63 68 67 57 55 49 52 59 60 57 54 59 59 60 54 47 42 43 42 46 41 36 50 54
292 288 349 28 7 357 10 15 18 26 36 50 35 19 9 16 26 34 34 41 51 53 53 55 51 50 52 59 58 57 53 51 59 66 61 50 41 37 41 45 45 45 42 52
26 305 335 247 53 15 21 13 17 24 25 43 8 34 20 13 22 26 28 42 51 48 45 49 52 46 47 51 51 54 56 54 51 62 58 52 49 45 46 45 47 49 48 50
6 308 329 260 328 212 25 10 11 23 6 34 32 46 12 20 27 35 33 36 47 47 46 47 49 44 45 47 52 53 55 51 54 57 56 54 50 44 44 43 40 48 50 53
349 333 332 317 348 326 13 357 352 10 17 353 24 18 4 36 34 25 30 37 42 41 39 39 41 40 43 39 40 52 59 62 61 63 56 51 53 53 46 50 53 53 54 60
301 316 283 310 307 36 287 314 335 343 26 12 15 22 30 59 55 42 33 37 38 38 33 38 42 47 51 50 52 52 52 55 58 57 56 53 65 60 58 51 54 42 48 47
222 292 313 355 36 179 146 10 360 1 19 17 8 9 1 6 68 42 28 37 43 45 45 48 45 46 49 48 50 58 56 54 56 49 47 40 42 54 54 50 52 48 59 56
290 224 278 335 54 21 2 346 337 292 39 13 4 16 32 12 60 26 9 24 34 45 42 44 44 48 46 42 48 54 52 49 49 39 40 43 40 51 53 55 54 43 45 52
332 354 32 8 59 74 357 324 322 42 16 358 21 32 37 57 47 20 11 30 35 39 40 44 49 50 37 29 48 57 53 47 38 38 44 43 41 50 52 54 48 51 51 60
326 330 353 265 10 23 6 308 32 31 45 19 34 42 66 74 68 53 38 34 30 32 29 28 44 40 29 18 38 52 45 20 25 33 44 38 33 37 40 51 45 39 56 58
147 277 316 281 56 338 327 40 30 345 37 55 73 51 66 61 44 28 32 31 31 29 26 15 34 46 35 28 26 51 21 8 5 29 30 28 33 39 30 50 58 60 47 37
178 172 250 324 151 182 36 94 44 10 72 70 53 68 88 101 73 61 50 40 39 25 21 7 34 41 34 21 34 32 9 349 347 16 18 14 25 9 22 15 20 27 46 43
31 154 181 247 292 326 216 225 114 108 93 93 47 30 68 97 85 83 79 62 60 51 26 22 32 42 26 8 20 13 357 346 357 356 356 1 3 358 344 355 343 354 52 9
183 180 188 178 148 163 123 131 131 128 97 62 97 104 46 18 80 71 56 34 27 34 12 28 34 32 17 15 23 9 358 355 348 337 359 6 328 339 328 330 331 224 277 294